Portada
METAR-TAF:

METAR-TAF

Aeropuertos :

Mount Pleasant Municipal Airport

Mount Pleasant, Iowa, Estados Unidos

latitud: 40-56-48N, longitud: 091-30-40W, altitud: 224 m

Observación

El informe se hizo hace 27 minutos, a las 08:15 UTC
Viento 5 kt del norte-noreste
Temperatura 21°C
Humedad 83%
Presión 1016 hPa
Visibilidad: 16.1 km
Nubes dispersas a una altura de 11000 ft

METAR: KMPZ 060815Z AUTO 02005KT 10SM SCT110 21/18 A3000 RMK AO2

Hora: 03:42 (08:42 UTC)


TAF: falta

Observaciones y pronósticos meteorológicos de más de 4000 aeropuertos (mensajes METAR y TAF).

Los puntos amarillos y rojos representan las estaciones disponibles.

Ponga el ratón en el punto deseado para ver el nombre de la estación.

Haga clic para ver las observaciones y los pronósticos meteorológicos.

Para cambiar el mapa : haga clic en los botones verdes con una cruz de color negro para hacer un zoom, en el botón verde con un guión para alejar o en las flechas verdes para mapas adyacentes.


METAR-TAF: